Museu de l'Esquerda





Hora UTC 21:00
Temperatura 19.3 ºC
Humitat 74.0 %
Pressió 1019.8 hPa
Pluja 0.0 mm
Velocitat vent 0.0 km/h
Direcció vent SSE

Dades diàries 2022-08-19



Hora UTC (hivern +1h; estiu +2h)
Temperatura (ºC) Humitat (%) Pressió (hPa) Velocitat vent (km/h) Precipitació (mm)
Hora UTC Aire Humitat Pressió Vel. Dir. Vel. Max Dir. Intent. màx 5 min.
00:05 12.3 92.0 1017.8 0.0 ESE 0.0 0.0
00:10 12.3 92.0 1017.7 0.0 ESE 0.0 0.0
00:15 12.5 92.0 1017.8 0.0 ESE 0.0 0.0
00:20 12.6 92.0 1017.5 1.6 ESE 1.6 0.0
00:25 12.6 92.0 1017.5 0.0 ESE 3.2 0.0
00:30 12.5 92.0 1017.6 0.0 ESE 3.2 0.0
00:35 12.6 92.0 1017.8 0.0 ESE 3.2 0.0
00:40 12.6 92.0 1017.8 0.0 ESE 1.6 0.0
00:45 12.6 92.0 1017.8 0.0 ESE 1.6 0.0
00:50 12.7 92.0 1017.8 1.6 ESE 1.6 0.0
00:55 12.8 92.0 1017.7 0.0 ESE 3.2 0.0
01:00 12.8 93.0 1017.8 0.0 ESE 3.2 0.0
01:05 13.1 93.0 1017.7 1.6 ESE 3.2 0.0
01:10 13.2 93.0 1017.7 1.6 ESE 3.2 0.0
01:15 13.2 93.0 1017.6 0.0 SSE 3.2 0.0
01:20 13.2 93.0 1017.6 1.6 SSE 3.2 0.0
01:25 13.2 93.0 1017.6 1.6 SSE 3.2 0.0
01:30 13.3 93.0 1017.6 0.0 SSE 3.2 0.0
01:35 13.3 93.0 1017.9 1.6 S 4.8 0.0
01:40 13.4 93.0 1017.9 0.0 S 3.2 0.0
01:45 13.4 93.0 1017.9 1.6 S 1.6 0.0
01:50 13.4 93.0 1017.8 0.0 S 3.2 0.0
01:55 13.4 93.0 1017.8 0.0 S 3.2 0.0
02:00 13.4 93.0 1017.9 0.0 S 3.2 0.0
02:05 13.4 93.0 1018.0 0.0 S 3.2 0.0
02:10 13.4 93.0 1018.1 1.6 S 3.2 0.0
02:15 13.4 93.0 1018.0 0.0 S 3.2 0.0
02:20 13.3 93.0 1018.0 0.0 S 3.2 0.0
02:25 13.2 93.0 1017.9 0.0 S 3.2 0.0
02:30 13.2 93.0 1017.9 1.6 S 3.2 0.0
02:35 13.2 93.0 1017.9 1.6 S 3.2 0.0
02:40 13.1 93.0 1017.9 0.0 S 3.2 0.0
02:45 13.1 93.0 1017.9 1.6 S 3.2 0.0
02:50 13.1 93.0 1017.8 1.6 S 3.2 0.0
02:55 13.2 93.0 1017.8 3.2 S 3.2 0.0
03:00 13.1 93.0 1017.9 3.2 SW 8.0 0.0
03:05 13.1 93.0 1017.9 0.0 SW 8.0 0.0
03:10 13.1 93.0 1018.2 1.6 SW 4.8 0.0
03:15 13.1 93.0 1018.1 3.2 SW 3.2 0.0
03:20 13.0 93.0 1018.1 0.0 SW 3.2 0.0
03:25 12.9 93.0 1018.2 0.0 SW 3.2 0.0
03:30 12.9 93.0 1018.1 1.6 SW 3.2 0.0
03:35 12.9 93.0 1018.0 3.2 SW 3.2 0.0
03:40 12.9 93.0 1018.2 0.0 SW 4.8 0.0
03:45 12.9 93.0 1018.4 0.0 SW 3.2 0.0
03:50 13.0 93.0 1018.4 0.0 SSE 3.2 0.0
03:55 13.0 93.0 1018.4 0.0 SSE 3.2 0.0
04:00 12.9 93.0 1018.5 1.6 S 4.8 0.0
04:05 12.7 93.0 1018.4 0.0 S 4.8 0.0
04:10 12.8 93.0 1018.4 3.2 S 8.0 0.0
04:15 12.8 93.0 1018.4 1.6 S 6.4 0.0
04:20 12.9 93.0 1018.5 0.0 S 3.2 0.0
04:25 12.9 93.0 1018.5 0.0 S 3.2 0.0
04:30 12.8 93.0 1018.5 0.0 S 3.2 0.0
04:35 12.8 93.0 1018.7 1.6 S 3.2 0.0
04:40 12.7 93.0 1018.7 1.6 S 1.6 0.0
04:45 12.6 93.0 1018.7 0.0 S 1.6 0.0
04:50 12.6 93.0 1018.7 1.6 S 3.2 0.0
04:55 12.6 93.0 1018.7 0.0 S 3.2 0.0
05:00 12.6 93.0 1018.9 1.6 S 3.2 0.0
05:05 12.6 93.0 1018.8 6.4 S 6.4 0.0
05:10 12.6 93.0 1018.8 0.0 S 4.8 0.0
05:15 12.6 93.0 1018.8 0.0 S 4.8 0.0
05:20 12.6 93.0 1018.9 0.0 S 1.6 0.0
05:25 12.6 93.0 1018.9 0.0 S 1.6 0.0
05:30 12.6 93.0 1019.0 0.0 S 4.8 0.0
05:35 12.6 93.0 1019.1 1.6 S 4.8 0.0
05:40 12.6 93.0 1019.0 1.6 SSW 4.8 0.0
05:45 12.5 93.0 1019.0 0.0 SSW 4.8 0.0
05:50 12.4 93.0 1019.2 3.2 SSW 4.8 0.0
05:55 12.4 93.0 1019.3 0.0 SW 4.8 0.0
06:00 12.3 93.0 1019.3 1.6 SW 4.8 0.0
06:05 12.4 93.0 1019.3 0.0 SW 4.8 0.0
06:10 12.4 93.0 1019.3 1.6 SW 3.2 0.0
06:15 12.3 93.0 1019.3 0.0 SW 4.8 0.0
06:20 12.4 93.0 1019.4 1.6 SW 4.8 0.0
06:25 12.4 93.0 1019.5 0.0 SW 4.8 0.0
06:30 12.4 93.0 1019.5 4.8 SW 4.8 0.0
06:35 12.6 93.0 1019.6 3.2 SW 4.8 0.0
06:40 12.5 93.0 1019.8 3.2 SW 4.8 0.0
06:45 12.6 93.0 1019.7 3.2 SW 4.8 0.0
06:50 12.7 93.0 1019.7 0.0 SW 4.8 0.0
06:55 12.9 93.0 1019.7 0.0 SW 1.6 0.0
07:00 12.7 93.0 1019.7 3.2 WSW 4.8 0.0
07:05 12.9 93.0 1019.7 0.0 WSW 4.8 0.0
07:10 13.2 93.0 1019.8 0.0 WSW 3.2 0.0
07:15 13.1 93.0 1019.9 3.2 WSW 4.8 0.0
07:20 13.0 93.0 1020.2 3.2 WSW 4.8 0.0
07:25 12.9 93.0 1020.2 0.0 WSW 4.8 0.0
07:30 12.9 93.0 1020.1 1.6 WSW 3.2 0.0
07:35 12.9 93.0 1020.2 1.6 SW 4.8 0.0
07:40 13.2 93.0 1020.2 1.6 SE 4.8 0.0
07:45 13.6 93.0 1020.1 1.6 SE 4.8 0.0
07:50 13.8 93.0 1020.0 1.6 NE 6.4 0.0
07:55 14.0 93.0 1020.1 3.2 N 6.4 0.0
08:00 14.4 93.0 1020.0 4.8 NE 6.4 0.0
08:05 14.5 92.0 1020.1 0.0 NNE 6.4 0.0
08:10 15.1 92.0 1020.0 0.0 NNE 4.8 0.0
08:15 15.4 90.0 1020.0 0.0 W 4.8 0.0
08:20 15.7 89.0 1020.1 3.2 W 6.4 0.0
08:25 16.2 86.0 1020.1 1.6 WNW 6.4 0.0
08:30 16.2 83.0 1020.0 0.0 W 3.2 0.0
08:35 16.4 82.0 1019.9 0.0 NNW 4.8 0.0
08:40 17.2 82.0 1020.0 1.6 NNW 4.8 0.0
08:45 17.6 80.0 1020.1 0.0 WNW 4.8 0.0
08:50 17.6 76.0 1019.9 0.0 NW 4.8 0.0
08:55 17.6 77.0 1019.8 0.0 NW 4.8 0.0
09:00 18.2 76.0 1019.9 0.0 N 3.2 0.0
09:05 18.3 75.0 1019.9 1.6 N 4.8 0.0
09:10 18.5 75.0 1020.0 0.0 NNW 6.4 0.0
09:15 18.9 75.0 1020.0 0.0 NW 4.8 0.0
09:20 19.5 71.0 1019.9 1.6 WNW 4.8 0.0
09:25 19.8 72.0 1019.9 0.0 SW 4.8 0.0
09:30 19.9 69.0 1019.9 4.8 N 6.4 0.0
09:35 19.8 71.0 1019.8 1.6 N 6.4 0.0
09:40 20.9 70.0 1019.8 0.0 SW 4.8 0.0
09:45 21.4 65.0 1019.7 0.0 S 4.8 0.0
09:50 21.4 65.0 1019.8 1.6 WNW 6.4 0.0
09:55 21.6 65.0 1019.7 1.6 WNW 6.4 0.0
10:00 22.4 61.0 1019.7 1.6 W 6.4 0.0
10:05 22.3 64.0 1019.7 3.2 N 6.4 0.0
10:10 21.8 67.0 1019.7 1.6 NW 6.4 0.0
10:15 22.5 65.0 1019.7 3.2 W 6.4 0.0
10:20 22.6 65.0 1019.6 3.2 WSW 6.4 0.0
10:25 22.6 65.0 1019.5 6.4 NNW 9.7 0.0
10:30 23.4 63.0 1019.5 3.2 SW 9.7 0.0
10:35 23.4 64.0 1019.5 1.6 W 6.4 0.0
10:40 23.9 63.0 1019.3 3.2 SW 4.8 0.0
10:45 24.7 60.0 1019.2 0.0 SW 6.4 0.0
10:50 24.9 62.0 1019.2 4.8 S 8.0 0.0
10:55 25.2 58.0 1019.2 3.2 SSW 8.0 0.0
11:00 25.2 55.0 1019.1 1.6 N 8.0 0.0
11:05 24.6 56.0 1019.1 1.6 NNW 6.4 0.0
11:10 25.4 57.0 1019.1 4.8 NW 6.4 0.0
11:15 25.8 49.0 1019.0 3.2 NNW 6.4 0.0
11:20 25.5 51.0 1019.0 0.0 NE 4.8 0.0
11:25 26.1 48.0 1019.0 3.2 N 6.4 0.0
11:30 25.8 46.0 1019.1 3.2 NNW 8.0 0.0
11:35 25.9 53.0 1018.9 3.2 S 8.0 0.0
11:40 27.7 47.0 1019.0 4.8 SSW 8.0 0.0
11:45 27.9 45.0 1018.9 3.2 WSW 8.0 0.0
11:50 27.8 42.0 1018.8 3.2 W 8.0 0.0
11:55 27.1 41.0 1018.8 3.2 NE 8.0 0.0
12:00 27.8 44.0 1018.7 3.2 SW 6.4 0.0
12:05 28.1 40.0 1018.7 4.8 NNW 6.4 0.0
12:10 27.7 40.0 1018.6 4.8 NNE 6.4 0.0
12:15 28.1 39.0 1018.6 4.8 NNW 6.4 0.0
12:20 28.1 38.0 1018.4 4.8 NW 8.0 0.0
12:25 28.2 34.0 1018.4 3.2 NW 9.7 0.0
12:30 28.5 33.0 1018.4 1.6 NNW 9.7 0.0
12:35 28.9 35.0 1018.3 3.2 SSE 8.0 0.0
12:40 29.8 34.0 1018.2 0.0 SW 6.4 0.0
12:45 29.9 33.0 1018.3 1.6 ESE 8.0 0.0
12:50 30.4 34.0 1018.3 1.6 WSW 8.0 0.0
12:55 30.5 34.0 1018.2 4.8 SW 12.9 0.0
13:00 30.6 31.0 1018.2 6.4 SSE 12.9 0.0
13:05 29.9 29.0 1018.1 1.6 NW 12.9 0.0
13:10 30.1 32.0 1018.1 6.4 WSW 8.0 0.0
13:15 30.1 31.0 1018.1 0.0 SW 11.3 0.0
13:20 30.7 32.0 1017.9 6.4 SSW 12.9 0.0
13:25 30.9 30.0 1017.9 1.6 WSW 12.9 0.0
13:30 31.1 30.0 1017.9 4.8 S 12.9 0.0
13:35 30.9 26.0 1017.7 4.8 SW 11.3 0.0
13:40 30.9 28.0 1017.7 1.6 SSW 11.3 0.0
13:45 31.6 28.0 1017.7 4.8 WSW 11.3 0.0
13:50 31.2 29.0 1017.7 1.6 SSW 11.3 0.0
13:55 31.7 31.0 1017.6 8.0 WSW 11.3 0.0
14:00 31.8 29.0 1017.7 1.6 SW 14.5 0.0
14:05 31.6 31.0 1017.5 6.4 SSW 14.5 0.0
14:10 31.5 32.0 1017.5 0.0 SSW 12.9 0.0
14:15 32.0 30.0 1017.6 8.0 SW 16.1 0.0
14:20 31.9 29.0 1017.5 3.2 S 16.1 0.0
14:25 32.0 31.0 1017.6 1.6 SSW 8.0 0.0
14:30 31.1 30.0 1017.5 1.6 SW 8.0 0.0
14:35 30.8 33.0 1017.4 1.6 SW 14.5 0.0
14:40 31.4 33.0 1017.6 0.0 S 12.9 0.0
14:45 31.5 33.0 1017.4 1.6 SSE 16.1 0.0
14:50 31.5 34.0 1017.4 6.4 W 16.1 0.0
14:55 30.9 36.0 1017.4 4.8 SSW 14.5 0.0
15:00 30.6 36.0 1017.4 3.2 NNW 11.3 0.0
15:05 30.3 36.0 1017.3 0.0 ENE 6.4 0.0
15:10 29.3 40.0 1017.3 3.2 WSW 12.9 0.0
15:15 28.5 42.0 1017.2 0.0 SW 12.9 0.0
15:20 28.4 42.0 1017.2 0.0 SSW 11.3 0.0
15:25 28.3 43.0 1017.1 1.6 SSW 9.7 0.0
15:30 28.3 44.0 1017.1 11.3 WSW 12.9 0.0
15:35 29.1 42.0 1017.1 3.2 SW 11.3 0.0
15:40 29.8 41.0 1017.0 6.4 SE 11.3 0.0
15:45 30.5 40.0 1017.0 9.7 SSE 11.3 0.0
15:50 29.6 47.0 1017.1 3.2 SE 17.7 0.0
15:55 30.2 47.0 1017.0 8.0 SE 19.3 0.0
16:00 30.6 45.0 1017.0 4.8 SE 22.5 0.0
16:05 30.3 46.0 1016.9 8.0 E 16.1 0.0
16:10 29.8 47.0 1017.0 11.3 E 14.5 0.0
16:15 29.3 48.0 1017.1 3.2 E 12.9 0.0
16:20 28.8 49.0 1016.9 4.8 E 12.9 0.0
16:25 28.4 50.0 1017.0 9.7 SSE 12.9 0.0
16:30 28.6 50.0 1017.0 3.2 E 16.1 0.0
16:35 28.8 49.0 1017.2 1.6 SE 16.1 0.0
16:40 28.8 49.0 1017.1 6.4 ENE 11.3 0.0
16:45 29.0 49.0 1017.2 1.6 ESE 8.0 0.0
16:50 28.9 49.0 1017.2 0.0 SSE 20.9 0.0
16:55 28.6 50.0 1017.1 0.0 E 20.9 0.0
17:00 28.4 50.0 1017.1 4.8 ESE 14.5 0.0
17:05 28.1 50.0 1017.0 14.5 S 16.1 0.0
17:10 27.7 51.0 1017.0 1.6 E 16.1 0.0
17:15 27.5 52.0 1017.0 1.6 SE 12.9 0.0
17:20 27.2 53.0 1017.1 6.4 ESE 8.0 0.0
17:25 26.9 55.0 1017.1 0.0 NNE 11.3 0.0
17:30 26.6 56.0 1017.2 4.8 E 14.5 0.0
17:35 26.3 57.0 1017.2 8.0 E 17.7 0.0
17:40 26.1 57.0 1017.2 4.8 ENE 17.7 0.0
17:45 26.0 58.0 1017.2 4.8 SSE 16.1 0.0
17:50 25.8 58.0 1017.4 0.0 E 14.5 0.0
17:55 25.6 59.0 1017.4 3.2 ENE 14.5 0.0
18:00 25.3 59.0 1017.5 11.3 E 14.5 0.0
18:05 24.9 60.0 1017.6 1.6 E 11.3 0.0
18:10 24.6 61.0 1017.6 4.8 E 14.5 0.0
18:15 24.2 62.0 1017.7 6.4 ESE 14.5 0.0
18:20 23.9 64.0 1017.7 1.6 E 11.3 0.0
18:25 23.7 65.0 1017.8 0.0 ENE 9.7 0.0
18:30 23.4 65.0 1017.8 1.6 ENE 9.7 0.0
18:35 23.2 66.0 1017.9 0.0 ENE 4.8 0.0
18:40 23.0 67.0 1018.1 0.0 NE 6.4 0.0
18:45 22.8 67.0 1018.2 0.0 NE 6.4 0.0
18:50 22.7 67.0 1018.2 0.0 NE 3.2 0.0
18:55 22.4 67.0 1018.3 0.0 NE 4.8 0.0
19:00 22.4 68.0 1018.5 0.0 NE 4.8 0.0
19:05 22.2 68.0 1018.4 0.0 ENE 4.8 0.0
19:10 22.1 69.0 1018.5 3.2 S 6.4 0.0
19:15 21.8 69.0 1018.6 1.6 S 6.4 0.0
19:20 21.7 70.0 1018.7 1.6 S 3.2 0.0
19:25 21.6 70.0 1018.7 0.0 S 4.8 0.0
19:30 21.4 70.0 1018.8 0.0 S 4.8 0.0
19:35 21.2 70.0 1018.9 0.0 S 1.6 0.0
19:40 21.1 70.0 1019.0 0.0 S 1.6 0.0
19:45 20.8 69.0 1019.0 4.8 WSW 4.8 0.0
19:50 20.6 68.0 1019.0 3.2 WSW 4.8 0.0
19:55 20.4 68.0 1019.2 3.2 WSW 6.4 0.0
20:00 20.4 68.0 1019.2 1.6 WSW 6.4 0.0
20:05 20.3 69.0 1019.3 0.0 WSW 4.8 0.0
20:10 20.3 69.0 1019.2 1.6 WSW 4.8 0.0
20:15 20.2 69.0 1019.4 1.6 SW 4.8 0.0
20:20 20.1 70.0 1019.5 0.0 SW 4.8 0.0
20:25 20.1 70.0 1019.6 3.2 SW 3.2 0.0
20:30 20.0 70.0 1019.6 0.0 SW 3.2 0.0
20:35 19.9 71.0 1019.7 0.0 SW 4.8 0.0
20:40 19.8 71.0 1019.7 3.2 SSW 6.4 0.0
20:45 19.7 74.0 1019.7 1.6 SSW 6.4 0.0
20:50 19.6 74.0 1019.8 4.8 SSE 8.0 0.0
20:55 19.4 75.0 1019.8 0.0 SSE 8.0 0.0
21:00 19.3 74.0 1019.8 0.0 SSE 1.6 0.0
Màxima 32.2 93.0 1020.2 14.5 S 22.5 0.0
Mínima 12.3 26.0 1016.9
Total 0.0